User: anonymous   Login
Location: Newark
(16.9667°N, 88.2167°W)
Time: 22:14:42
(UTC+00:00)
Language:

XW-2A - Orbit

View from above orbital plane
View from above orbital plane
View from above satellite
View from above satellite

Ground track
Ground track

The orbit data is extracted from the following two-line orbital elements,

1 40903U 15049E   19339.40118468  .00001379  00000-0  33885-4 0  9993
2 40903  97.3167  22.9674 0011728 248.2639 209.9271 15.42388259236406
Epoch (UTC): 05 December 2019 09:37:42
Eccentricity: 0.0011728
inclination: 97.3167°
perigee height: 431 km
apogee height: 447 km
right ascension of ascending node: 22.9674°
argument of perigee: 248.2639°
revolutions per day: 15.42388259
mean anomaly at epoch: 209.9271°
orbit number at epoch: 23640

The dashed part of the orbit path shows where the satellite is in the earth's shadow,  

DLR